Tracking 20241 objects as of 26-Jan-2020
HD Live streaming from Space Station
objects crossing your sky now

COSMOS 2251 DEB

Track COSMOS 2251 DEB now!
10-day predictions


NORAD ID: 36371
Int'l Code: 1993-036AYY
Perigee: 744.8 km
Apogee: 777.1 km
Inclination: 74.0 °
Period: 99.9 minutes
Semi major axis: 7131 km
RCS: 0.0064 m2 (small)
Launch date: June 16, 1993
Source: Commonwealth of Independent States (former USSR) (CIS)
Launch site: PLESETSK MISSILE AND SPACE COMPLEX (PKMTR)

Note: This is SATELLITE DEBRIS
aabbcc
Your satellite tracking list
Your tracking list is empty




NASA's NSSDC Master Catalog

Two Line Element Set (TLE):
1 36371U 93036AYY 20025.31378604 +.00000554 +00000-0 +17847-3 0  9996
2 36371 074.0236 233.5330 0022677 077.0037 283.3649 14.41422647544633
Source of the keplerian elements: AFSPC